#timestamp,LO_Frequency,Hit,StdDev 
1605610815.0,286047002.0,N
1605610815.9,286047002.0,N
1605610835.8,286046999.9,N
1605610855.6,286046999.7,N
1605610875.5,286047001.7,N
1605610895.3,286046999.7,N
1605610915.1,286047002.8,N
1605610935.9,286047002.4,N
1605610955.7,286047000.3,N
1605610975.5,286047000.8,N
1605610995.4,286046999.7,N
1605611015.2,286046999.9,N
1605611035.1,286047001.0,N
1605611036.0,286047001.0,N
1605611055.8,286047000.4,N
1605611075.6,286047001.6,N
1605611095.5,286046999.7,N
1605611115.3,286047001.7,N
1605611135.1,286047002.0,N
1605611155.9,286046999.8,N
1605611175.7,286047002.4,N
1605611195.6,286047002.6,N
1605611215.4,286047000.5,N
1605611235.2,286046998.5,N
1605611255.1,286046999.6,N
1605611256.0,286046999.6,N
1605611275.8,286046997.8,N
1605611295.6,286046997.8,N
1605611315.5,286046995.6,Y
1605611335.3,286046995.7,P
1605611355.2,286046995.7,N
1605611375.9,286046998.0,N
1605611395.7,286046995.0,N
1605611415.6,286046995.2,N
1605611435.4,286046997.6,N
1605611455.2,286046995.4,N
1605611475.1,286046996.1,N
1605611476.0,286046996.1,N
1605611495.8,286046993.7,Y
1605611515.7,286046996.9,P
1605611535.5,286046997.6,P
1605611555.3,286046997.9,P
1605611575.2,286046997.8,Y
1605611595.0,286046998.3,P
1605611595.9,286046998.3,P
1605611615.8,286046999.4,N
1605611635.6,286046998.4,N
1605611655.4,286046998.7,N
1605611675.3,286046998.9,N
1605611695.1,286046998.9,N
1605611715.8,286046998.6,N
1605611735.7,286046998.3,Y
1605611755.5,286047002.3,P
1605611775.4,286046999.9,N
1605611795.2,286047002.8,N
1605611815.0,286046999.9,N
1605611815.9,286046999.9,N
1605611835.8,286047000.8,N
1605611855.6,286047000.9,N
1605611875.5,286047000.9,N
1605611895.3,286047001.0,N
1605611915.1,286046999.9,N
1605611935.9,286047000.6,N
1605611955.7,286047000.7,N
1605611975.5,286047000.4,N
1605611995.4,286046999.9,N
1605612015.2,286047002.3,N
1605612035.1,286047001.7,N
1605612036.0,286047001.7,N
1605612055.8,286047001.6,N
1605612075.6,286047001.9,N
1605612095.5,286047003.8,Y
1605612115.3,286047001.6,P
1605612135.1,286047001.5,P
1605612155.9,286047001.9,P
1605612175.7,286047001.5,Y
1605612195.6,286047000.0,P
1605612215.4,286047002.4,P
1605612235.2,286047000.1,N
1605612255.1,286047002.1,N
1605612256.0,286047002.1,N
1605612275.8,286047004.3,Y
1605612295.7,286047002.3,P
1605612315.5,286047000.1,N
1605612335.3,286047001.1,N
1605612355.2,286046998.3,N
1605612375.0,286047000.4,N
1605612375.9,286047000.4,N
1605612395.7,286047001.4,N
1605612415.6,286047004.1,Y
1605612435.4,286047001.4,P
1605612455.3,286047002.9,P
1605612475.1,286047005.3,P
1605612476.0,286047005.3,N
1605612495.8,286047004.5,N
1605612515.7,286047007.5,Y
1605612535.5,286047001.5,P
1605612555.3,286047004.3,P
1605612575.2,286047002.9,N
1605612595.0,286047003.7,Y
1605612595.9,286047003.7,P
1605612615.8,286047001.9,P
1605612635.6,286047003.9,P
1605612655.4,286047004.1,Y
1605612675.3,286047001.2,P
1605612695.1,286047000.5,N
1605612715.9,286047000.2,N
1605612735.7,286047000.6,N
1605612755.5,286047001.2,N
1605612775.4,286047000.9,N
1605612795.2,286046998.8,N
1605612815.0,286046999.3,N
1605612815.9,286046999.3,N
1605612835.8,286047000.3,N
1605612855.6,286047002.5,N
1605612875.5,286047002.3,N
1605612895.3,286047003.8,Y
1605612915.1,286047003.8,P
1605612935.9,286047004.1,N
1605612955.7,286047004.4,N
1605612975.5,286047004.3,N
1605612995.4,286047004.6,Y
1605613015.2,286047001.6,P
1605613035.1,286047004.1,P
1605613036.0,286047004.1,P
1605613055.8,286047004.4,Y
1605613075.6,286046998.6,P
1605613095.5,286046999.0,N
1605613115.3,286047000.8,N
1605613135.1,286046999.9,N
1605613155.9,286047001.2,N
1605613175.7,286046998.5,N
1605613195.6,286046998.1,N
1605613215.4,286047000.2,N
1605613235.2,286047000.5,N
1605613255.1,286046999.9,N
1605613256.0,286046999.9,N
1605613275.8,286047001.2,N
1605613295.6,286047000.0,N
1605613315.5,286047002.7,N
1605613335.3,286047000.9,N
1605613355.2,286047000.5,N
1605613375.9,286047000.1,N
1605613395.7,286047002.2,N
1605613415.6,286047002.8,N
1605613435.4,286047002.2,N
1605613455.2,286047002.3,N
1605613475.1,286047002.4,N
1605613476.0,286047002.4,N
1605613495.8,286047000.2,N
1605613515.7,286047000.4,N
1605613535.5,286047000.6,N
1605613555.3,286047000.1,N
1605613575.2,286047000.2,N
1605613595.0,286047002.0,N
1605613595.9,286047002.0,N
1605613615.7,286047002.2,N
1605613635.6,286047004.4,Y
1605613655.4,286047002.2,P
1605613675.3,286047002.5,P
1605613695.1,286047001.6,N
1605613696.0,286047001.6,N
1605613715.8,286047001.3,N
1605613735.7,286047003.5,Y
1605613755.5,286047001.3,P
1605613775.3,286047005.6,P
1605613795.2,286047004.8,N
1605613815.0,286047004.9,N
1605613815.9,286047004.9,N
1605613835.8,286047005.6,Y
1605613855.6,286047002.1,P
1605613875.4,286047002.7,P
1605613895.3,286047001.9,N
1605613915.1,286047000.1,N
1605613935.9,286047000.2,N
1605613955.7,286047002.5,N
1605613975.5,286047002.4,N
1605613995.4,286047000.4,N
1605614015.2,286047001.2,N
1605614035.0,286046998.9,N
1605614035.9,286046998.9,N
1605614055.8,286046999.1,N
1605614075.6,286046999.3,N
1605614095.5,286047001.0,N
1605614115.3,286046999.8,N
1605614135.1,286047000.3,N
1605614155.9,286047000.6,N
1605614175.7,286047000.3,N
1605614195.5,286046996.6,N
1605614215.4,286047000.5,N
1605614235.2,286046999.2,N
1605614255.0,286046999.5,N
1605614256.0,286046999.5,N
1605614275.8,286046997.4,N
1605614295.6,286046996.8,N
1605614315.5,286046999.2,N
1605614335.3,286046999.6,N
1605614355.1,286046996.6,N
1605614375.9,286046998.3,N
1605614395.7,286047002.1,N
